Terminal Aerodrome Forecast
Issued by NWS Charleston, WV

Current Version | Previous Version | Graphics & Text | Print | Product List | Glossary On
Versions: 1 2 3 4 5 6 7 8 9 10 11 12 13 14 15 16 17 18 19 20 21 22
000
FTUS41 KRLX 300236 AAA
TAFBKW
TAF AMD
KBKW 300236Z 3003/3024 VRB03KT P6SM VCSH SCT045
     FM300900 VRB03KT 5SM SHRA VCTS BKN020CB
     FM301400 30005KT P6SM VCSH BKN020
     FM301900 32009KT P6SM BKN025
     FM302000 32009KT P6SM SCT035=

USA.gov is the U.S. government's official web portal to all federal, state and local government web resources and services.